Massena, NY

8:54 AM EST on December 08, 2019 (GMT -0500)
Massena International-Richards

Weather History for KMSS - October, 2019

Change the Weather History Date:

Wednesday, October 16, 2019

  Actual Average Record
Temperature  
Mean Temperature 52 °F 46 °F  
Max Temperature 65 °F 56 °F 78 °F (1954)
Min Temperature 38 °F 36 °F 21 °F (1978)
Degree Days  
Heating Degree Days 13 19  
Month to date heating degree days 249 258  
Since 1 July heating degree days 464 558  
Cooling Degree Days 0 0  
Month to date cooling degree days 0 0  
Year to date cooling degree days 398 361  
Growing Degree Days 2 (Base 50)    
Moisture  
Dew Point 43 °F    
Average Humidity 72    
Maximum Humidity 89    
Minimum Humidity 54    
Precipitation  
Precipitation 0.53 in 0.11 in 1.35 in (1989)
Month to date precipitation 1.88 1.76  
Year to date precipitation 25.59 27.95  
Sea Level Pressure  
Sea Level Pressure 29.72 in    
Wind  
Wind Speed 10 mph (East)    
Max Wind Speed 21 mph    
Max Gust Speed 29 mph    
Visibility 10 miles    
Events Rain    
T = Trace of Precipitation, MM = Missing Value Source: NWS Daily Summary

Daily Weather History Graph

Daily Weather History Graph

Search for Another Location

Airport or City:

Astronomy

Oct. 16, 2019 Rise Set
Actual Time 7:16 AM EDT 6:13 PM EDT
Civil Twilight 6:46 AM EDT 6:42 PM EDT
Nautical Twilight 6:12 AM EDT 7:16 PM EDT
Astronomical Twilight 5:38 AM EDT 7:50 PM EDT
Moon 7:59 PM EDT (10/16) 9:49 AM EDT (10/16)
Length of Visible Light 11h 56m
Length of Day
10h 57m
Waning Gibbous, 93% of the Moon is Illuminated
Oct 16
Waning Gibbous
Oct 21
Last Quarter
Oct 27
New
Nov 4
First Quarter
Nov 12
Full

Hourly Weather History & Observations

Time (EDT) Temp. Windchill Dew Point Humidity Pressure Visibility Wind Dir Wind Speed Gust Speed Precip Events Conditions
12:53 AM 39.0 °F - 35.1 °F 86% 30.00 in 10.0 mi Calm Calm - N/A   Clear
1:53 AM 39.0 °F 36.8 °F 35.1 °F 86% 29.99 in 10.0 mi NE 3.5 mph - N/A   Clear
2:53 AM 42.1 °F 39.2 °F 37.0 °F 82% 29.96 in 10.0 mi ENE 4.6 mph - N/A   Clear
3:53 AM 42.1 °F 38.4 °F 37.0 °F 82% 29.94 in 10.0 mi NE 5.8 mph - N/A   Clear
4:53 AM 43.0 °F 38.2 °F 37.0 °F 80% 29.90 in 10.0 mi ENE 8.1 mph - N/A   Clear
5:53 AM 45.0 °F 40.6 °F 37.0 °F 74% 29.87 in 10.0 mi ENE 8.1 mph - N/A   Clear
6:53 AM 43.0 °F 38.2 °F 37.0 °F 80% 29.84 in 10.0 mi ENE 8.1 mph - N/A   Partly Cloudy
7:53 AM 46.0 °F 41.9 °F 39.9 °F 79% 29.83 in 10.0 mi NE 8.1 mph - N/A   Overcast
8:53 AM 48.9 °F - 42.1 °F 77% 29.79 in 10.0 mi ENE 6.9 mph - N/A   Overcast
9:53 AM 51.1 °F - 41.0 °F 68% 29.74 in 10.0 mi East 8.1 mph - N/A   Partly Cloudy
10:53 AM 54.0 °F - 43.0 °F 66% 29.73 in 10.0 mi ENE 6.9 mph - N/A   Clear
11:53 AM 60.1 °F - 44.1 °F 55% 29.71 in 10.0 mi SSE 16.1 mph 28.8 mph N/A   Partly Cloudy
12:53 PM 61.0 °F - 45.0 °F 56% 29.70 in 10.0 mi SE 11.5 mph - N/A   Mostly Cloudy
1:53 PM 64.0 °F - 46.9 °F 54% 29.66 in 10.0 mi SSE 9.2 mph 18.4 mph N/A   Mostly Cloudy
2:53 PM 64.0 °F - 46.9 °F 54% 29.64 in 10.0 mi SSE 18.4 mph 23.0 mph N/A   Mostly Cloudy
3:53 PM 64.0 °F - 46.9 °F 54% 29.62 in 10.0 mi SSE 12.7 mph 19.6 mph N/A   Partly Cloudy
4:53 PM 62.1 °F - 46.9 °F 58% 29.61 in 10.0 mi SSE 12.7 mph 19.6 mph 0.00 in Rain Light Rain
5:53 PM 57.0 °F - 48.9 °F 74% 29.60 in 10.0 mi ESE 5.8 mph - 0.04 in Rain Light Rain
6:53 PM 54.0 °F - 50.0 °F 86% 29.57 in 8.0 mi ENE 6.9 mph - 0.05 in Rain Light Rain
7:53 PM 54.0 °F - 50.0 °F 86% 29.56 in 5.0 mi ENE 9.2 mph - 0.13 in Rain Rain
8:53 PM 53.1 °F - 48.9 °F 86% 29.53 in 10.0 mi ENE 9.2 mph - 0.07 in Rain Light Rain
9:53 PM 52.0 °F - 48.0 °F 86% 29.50 in 8.0 mi ENE 12.7 mph - 0.08 in Rain Light Rain
10:53 PM 52.0 °F - 48.0 °F 86% 29.48 in 10.0 mi ENE 11.5 mph - 0.04 in Rain Light Rain
11:53 PM 51.1 °F - 48.0 °F 89% 29.45 in 10.0 mi ENE 11.5 mph - 0.04 in Rain Light Rain